GW0791 Weather Reports


time (UTC)temp
C
wind
direction
speed
KPH
gust
KPH
rain 1hr
cm
rain 24hr
cm
rain mn
cm
humidity
%
barometer
mb
20260508151601 17 360 3.2 9.7 0.00 0.00 0.00 48 1017.6
20260508150027 17 51 4.8 12.9 0.00 0.00 0.00 45 1017.8
20260508144524 16 336 3.2 17.7 0.00 0.00 0.00 48 1017.9
20260508143114 16 282 3.2 16.1 0.00 0.00 0.00 49 1017.9
20260508141556 15 133 3.2 12.9 0.00 0.00 0.00 56 1018.0
20260508140014 15 360 1.6 9.7 0.00 0.00 0.00 58 1018.0
20260508134512 13 50 1.6 6.4 0.00 0.00 0.00 66 1018.2
20260508133039 12 9 1.6 8.0 0.00 0.00 0.00 72 1018.2
20260508131532 10 360 1.6 6.4 0.00 0.00 0.00 87 1018.1
20260508130025 8 360 1.6 4.8 0.00 0.00 0.00 91 1018.2
20260508124528 7 360 0.0 3.2 0.00 0.00 0.00 94 1018.4
20260508123023 6 82 0.0 0.0 0.00 0.00 0.00 94 1018.5
20260508121514 4 82 0.0 3.2 0.00 0.00 0.00 95 1018.3
20260508120006 3 360 0.0 1.6 0.00 0.00 0.00 94 1018.2
20260508114504 2 360 0.0 1.6 0.00 0.00 0.00 94 1018.3
20260508113105 1 360 0.0 0.0 0.00 0.00 0.00 93 1018.3
20260508111604 1 360 0.0 0.0 0.00 0.00 0.00 93 1018.1
20260508110104 1 360 0.0 0.0 0.00 0.00 0.00 92 1018.1
20260508104554 1 360 0.0 0.0 0.00 0.00 0.00 92 1017.8
20260508103057 1 360 0.0 0.0 0.00 0.00 0.00 92 1017.7
20260508101555 1 360 0.0 0.0 0.00 0.00 0.00 92 1017.8
20260508100104 1 360 0.0 0.0 0.00 0.00 0.00 92 1017.5
20260508094548 1 360 0.0 0.0 0.00 0.00 0.00 92 1017.6
20260508093046 1 360 0.0 0.0 0.00 0.00 0.00 92 1017.5
20260508091604 1 360 0.0 0.0 0.00 0.00 0.00 92 1017.5
20260508090043 1 360 0.0 0.0 0.00 0.00 0.00 92 1017.4
20260508084538 2 360 0.0 0.0 0.00 0.00 0.00 92 1017.4
20260508083035 2 360 0.0 0.0 0.00 0.00 0.00 91 1017.1
20260508081543 2 360 0.0 0.0 0.00 0.00 0.00 91 1017.2
20260508080002 2 360 0.0 0.0 0.00 0.00 0.00 91 1017.1
20260508074608 2 360 0.0 0.0 0.00 0.00 0.00 91 1017.1
20260508073057 2 360 0.0 0.0 0.00 0.00 0.00 91 1017.0
20260508071555 2 360 0.0 0.0 0.00 0.00 0.00 91 1016.9
20260508070053 2 360 0.0 0.0 0.00 0.00 0.00 91 1017.0
20260508064551 3 360 0.0 0.0 0.00 0.00 0.00 90 1016.9
20260508063054 3 360 0.0 0.0 0.00 0.00 0.00 90 1017.0
20260508061546 3 360 0.0 0.0 0.00 0.00 0.00 90 1017.1
20260508060057 3 360 0.0 0.0 0.00 0.00 0.00 90 1017.1
20260508054620 3 360 0.0 0.0 0.00 0.00 0.00 89 1017.1
20260508053049 3 360 0.0 0.0 0.00 0.00 0.00 89 1017.0
20260508051538 3 360 0.0 0.0 0.00 0.00 0.00 89 1017.0
20260508050037 4 360 0.0 0.0 0.00 0.00 0.00 88 1016.9
20260508044536 4 360 0.0 0.0 0.00 0.00 0.00 88 1017.0
20260508043036 4 360 0.0 0.0 0.00 0.00 0.00 88 1017.2
20260508041531 5 360 0.0 0.0 0.00 0.00 0.00 87 1017.1
20260508040033 5 360 0.0 0.0 0.00 0.00 0.00 86 1017.1
20260508034536 5 360 0.0 0.0 0.00 0.00 0.00 85 1017.0
20260508033031 5 360 0.0 0.0 0.00 0.00 0.00 85 1017.0
20260508031523 6 360 0.0 0.0 0.00 0.00 0.00 84 1017.1
20260508030020 6 360 0.0 0.0 0.00 0.00 0.00 83 1017.0
20260508024518 6 360 0.0 0.0 0.00 0.00 0.00 82 1016.9
20260508023014 7 360 0.0 0.0 0.00 0.00 0.00 81 1016.6
20260508021509 7 360 0.0 0.0 0.00 0.00 0.00 79 1016.3
20260508020005 7 360 0.0 0.0 0.00 0.00 0.00 77 1016.1
20260508014502 8 360 0.0 0.0 0.00 0.00 0.00 75 1016.0
20260508013101 8 360 0.0 0.0 0.00 0.00 0.00 73 1015.7
20260508011601 10 360 0.0 0.0 0.00 0.00 0.00 71 1015.5
20260508010054 10 360 0.0 0.0 0.00 0.00 0.00 68 1015.3
20260508004556 11 360 0.0 0.0 0.00 0.00 0.00 65 1015.3
20260508003054 12 360 0.0 1.6 0.00 0.00 0.00 63 1015.1
20260508001551 13 360 0.0 1.6 0.00 0.00 0.00 61 1014.8
20260508000050 13 360 0.0 3.2 0.00 0.00 0.00 56 1014.5
20260507234550 14 159 0.0 1.6 0.00 0.00 0.00 51 1014.3
20260507233050 15 360 0.0 3.2 0.00 0.00 0.00 45 1014.2
20260507231548 15 360 1.6 6.4 0.00 0.00 0.00 42 1014.0
20260507230045 16 360 1.6 4.8 0.00 0.00 0.00 42 1014.1
20260507224547 16 360 1.6 16.1 0.00 0.00 0.00 41 1014.1
20260507223045 16 360 0.0 8.0 0.00 0.00 0.00 41 1014.0
20260507221518 17 360 1.6 9.7 0.00 0.00 0.00 41 1013.8
20260507220013 17 360 3.2 12.9 0.00 0.00 0.00 42 1013.7
20260507214518 17 129 1.6 9.7 0.00 0.00 0.00 40 1013.4
20260507213010 17 46 3.2 14.5 0.00 0.00 0.00 43 1013.4
20260507211510 18 360 3.2 14.5 0.00 0.00 0.00 41 1013.2
20260507210009 18 360 3.2 17.7 0.00 0.00 0.00 40 1013.2
20260507204506 18 360 8.0 29.0 0.00 0.00 0.00 41 1013.0
20260507203006 19 186 3.2 17.7 0.00 0.00 0.00 39 1013.1
20260507201504 19 113 6.4 16.1 0.00 0.00 0.00 41 1013.0
20260507200004 19 360 3.2 16.1 0.00 0.00 0.00 41 1013.2
20260507194532 19 360 3.2 16.1 0.00 0.00 0.00 45 1013.2
20260507193034 19 360 6.4 16.1 0.00 0.00 0.00 41 1013.3
20260507191559 18 360 4.8 17.7 0.00 0.00 0.00 47 1013.4
20260507190056 18 360 3.2 14.5 0.00 0.00 0.00 48 1013.6
20260507184525 17 360 6.4 19.3 0.00 0.00 0.00 46 1013.8
20260507183039 18 360 6.4 22.5 0.00 0.00 0.00 44 1014.0
20260507181553 18 360 3.2 16.1 0.00 0.00 0.00 47 1014.1
20260507180058 18 360 4.8 16.1 0.00 0.03 0.00 45 1014.1
20260507174602 18 360 4.8 19.3 0.00 0.03 0.00 47 1014.2
20260507173048 18 360 3.2 19.3 0.00 0.03 0.00 50 1014.3
20260507171559 17 360 3.2 17.7 0.00 0.03 0.00 54 1014.4
20260507170042 18 193 3.2 12.9 0.00 0.03 0.00 50 1014.5
20260507164545 17 360 3.2 17.7 0.00 0.03 0.00 54 1014.7
20260507163043 16 360 1.6 20.9 0.00 0.03 0.00 55 1014.9
20260507161540 16 22 4.8 12.9 0.00 0.03 0.00 57 1015.0
20260507160043 16 360 6.4 11.3 0.00 0.03 0.00 55 1015.1
20260507154531 15 360 0.0 6.4 0.00 0.03 0.00 56 1015.2
20260507153030 15 360 4.8 9.7 0.00 0.03 0.00 57 1015.2